Погода в Задубровье

Россия / Рязанская область     54°17′33″N   40°41′10″E
темп.,
°C
ветер,
м/с
пор.,
м/с
влажн.,
%
обл.,
%
осадки,
мм/ч
давл.,
гПа
погр.,
м
10 апреля, сб
сб1000:00+2св116066 0.0 102710
03:00+1всв11650 0.0 102810
06:00+1вюв22702 0.0 102918
09:00+6вюв23530 0.0 1028399
12:00+9всв22414 0.0 10271423
15:00+10св22364 0.0 10261597
18:00+9ссв22470 0.0 102630
21:00+5всв22600 0.0 102710
11 апреля, вс
вс1100:00+3вюв11701 0.0 102710
03:00+2ссз22700 0.0 102810
06:00+2с227065 0.0 102911
09:00+7ссв2252100 0.0 1030267
12:00+11ссв3442100 0.0 1030855
15:00+12св4539100 0.0 10301068
18:00+10всв3755100 0.0 1030180
21:00+7всв386597 0.0 1032163
12 апреля, пн
пн1200:00+5всв4973100 0.0 1031201
03:00+5св51072100 0.0 1031255
06:00+5св51189100 0.1 1031280
09:00+8всв5984100 0.1 1030406
12:00+13в6769100 0.0 1029627
15:00+16в5660100 0.0 1028752
18:00+14всв3770100 0.0 1027153
21:00+11в41082100 0.0 1028171
13 апреля, вт
вт1300:00+10юв41080100 0.0 1027147
03:00+9юв4108297 0.0 1027153
06:00+8юв4108294 0.0 1027165
09:00+14ююв61051100 0.0 1027376
12:00+18ююв673779 0.0 1026902
15:00+20ююв573451 0.0 10251890
18:00+17ююв354435 0.0 102471
21:00+12юв4557100 0.0 102561
14 апреля, ср
ср1400:00+11ююв410667 0.0 1025148
03:00+9ююв4117017 0.0 1025168
06:00+9ююв487287 0.0 1025123
09:00+14юв5951100 0.0 1024345
12:00+18юв6938100 0.0 1023909
15:00+20юв6830100 0.0 10211768
18:00+17юв4845100 0.0 1020178
21:00+12юв41159100 0.0 1020196